Hourly Data Report for October 21, 2013

All times are specified in Local Standard Time (LST). Add 1 hour to adjust for Daylight Saving Time where and when it is observed.

GJOA HAVEN A
NUNAVUT

68°38'08.000" N
95°51'01.000" W
46.90 m
2302337
71597
YHK

Download Data

Hourly Data (October 2013)
Hourly Data Report for October 21, 2013
Temp Definition
°C
Dew Point Temp Definition
°C
Rel Hum Definition
%
Wind Dir Definition
10's deg

Wind Spd Definition
km/h
Visibility Definition
km
Stn Press Definition
kPa
Hmdx Definition


Wind Chill Definition


Weather Definition


TIME
00:00 Legend Double Dagger -2.2 -2.3 99 19 17 16.1 101.60   -8 LegendNANA
01:00 Legend Double Dagger -2.7 -2.8 99 19 15 16.1 101.59   -8 LegendNANA
02:00 Legend Double Dagger -2.8 -3.1 98 17 15 16.1 101.60   -8 LegendNANA
03:00 Legend Double Dagger -2.7 -3.1 97 19 18 16.1 101.61   -8 LegendNANA
04:00 Legend Double Dagger -2.6 -3.6 93 19 18 16.1 101.62   -8 LegendNANA
05:00 Legend Double Dagger -2.5 -3.1 96 18 17 16.1 101.62   -8 LegendNANA
06:00 Legend Double Dagger -2.2 -2.5 98 18 18 16.1 101.61   -8 LegendNANA
07:00 Legend Double Dagger -2.3 -2.7 97 20 18 16.1 101.62   -8 LegendNANA
08:00 Legend Double Dagger -2.3 -2.7 97 19 17 16.1 101.62   -8 LegendNANA
09:00 Legend Double Dagger -2.0 -2.3 98 18 15 4.0 101.62   -7 LegendNANA
10:00 Legend Double Dagger -2.1 -2.2 99 19 18 16.1 101.61   -8 LegendNANA
11:00 Legend Double Dagger -2.0 -2.1 99 20 18 3.2 101.61   -7 LegendNANA
12:00 Legend Double Dagger -1.9 -2.0 99 19 21 3.6 101.62   -8 LegendNANA
13:00 Legend Double Dagger -1.8 -2.4 96 20 22 16.1 101.63   -8 LegendNANA
14:00 Legend Double Dagger -1.9 -3.0 92 20 21 16.1 101.64   -8 LegendNANA
15:00 Legend Double Dagger -2.0 -3.2 92 19 21 16.1 101.64   -8 LegendNANA
16:00 Legend Double Dagger -2.2 -3.3 92 18 17 16.1 101.64   -8 LegendNANA
17:00 Legend Double Dagger -2.5 -3.8 91 17 17 16.1 101.64   -8 LegendNANA
18:00 Legend Double Dagger -2.7 -3.9 92 16 15 16.1 101.65   -8 LegendNANA
19:00 Legend Double Dagger -2.7 -4.0 91 13 11 16.1 101.62   -7 LegendNANA
20:00 Legend Double Dagger -2.7 -4.3 89 14 17 16.1 101.60   -8 LegendNANA
21:00 Legend Double Dagger -2.8 -4.5 88 13 15 16.1 101.59   -8 LegendNANA
22:00 Legend Double Dagger -2.8 -5.0 85 13 17 16.1 101.57   -8 LegendNANA
23:00 Legend Double Dagger -3.8 -5.8 86 12 15 16.1 101.55   -9 LegendNANA

Notes on Data Quality.

Legend

  • E = Estimated
  • M = Missing
  • NA = Not Available
  • ‡ = Partner data that is not subject to review by the National Climate Archives
Date modified: